When you browse on this site, cookies collect data to enhance your experience and personalize the content and advertising you see.
Visit our Privacy Policy to learn more. By continuing to use the site, you agree to this use of cookies and data.
  • In Hungary
  • List of Countries
  • For 7 days
  • Water Temperature
  • Satellite Maps
  • Weather Map
  • News
  • Weather Widgets
  • user-avatar
    Login

    Hourly Weather Panshi

    Today, 21 April, Sunday

    Time Temperature Precipitation Wind Pressure Humidity
    00:00 +5°C° 0 mm 2 mps 731 mmHg 85%
    01:00 +4°C° 0 mm 2 mps 731 mmHg 87%
    02:00 +5°C° 0 mm 1 mps 731 mmHg 90%
    03:00 +4°C° 0 mm 1 mps 731 mmHg 90%
    04:00 +4°C° 0 mm 1 mps 731 mmHg 91%
    05:00 +4°C° 0 mm 1 mps 732 mmHg 91%
    06:00 +6°C° 0 mm 1 mps 732 mmHg 80%
    07:00 +8°C° 0 mm 1 mps 732 mmHg 70%
    08:00 +10°C° 0 mm 1 mps 732 mmHg 58%
    09:00 +11°C° 0 mm 1 mps 732 mmHg 47%
    10:00 +13°C° 0 mm 1 mps 732 mmHg 36%
    11:00 +15°C° 0 mm 2 mps 731 mmHg 25%
    12:00 +15°C° 0 mm 2 mps 731 mmHg 21%
    13:00 +16°C° 0 mm 3 mps 731 mmHg 18%
    14:00 +16°C° 0 mm 3 mps 731 mmHg 14%
    15:00 +16°C° 0 mm 3 mps 731 mmHg 14%
    16:00 +16°C° 0 mm 3 mps 731 mmHg 14%
    17:00 +14°C° 0 mm 3 mps 731 mmHg 14%
    18:00 +14°C° 0 mm 2 mps 731 mmHg 15%
    19:00 +12°C° 0 mm 2 mps 732 mmHg 17%
    20:00 +10°C° 0 mm 1 mps 732 mmHg 19%
    21:00 +10°C° 0 mm 1 mps 733 mmHg 19%
    22:00 +9°C° 0 mm 1 mps 733 mmHg 19%
    23:00 +8°C° 0 mm 1 mps 733 mmHg 20%

    Tomorrow, 22 April, Monday

    Time Temperature Precipitation Wind Pressure Humidity
    00:00 +8°C° 0 mm 1 mps 733 mmHg 21%
    01:00 +6°C° 0 mm 2 mps 733 mmHg 23%
    02:00 +6°C° 0 mm 2 mps 733 mmHg 24%
    03:00 +5°C° 0 mm 2 mps 733 mmHg 25%
    04:00 +5°C° 0 mm 2 mps 732 mmHg 26%
    05:00 +5°C° 0 mm 2 mps 732 mmHg 27%
    06:00 +7°C° 0 mm 2 mps 732 mmHg 26%
    07:00 +10°C° 0 mm 3 mps 732 mmHg 25%
    08:00 +12°C° 0 mm 3 mps 731 mmHg 24%
    09:00 +14°C° 0 mm 4 mps 731 mmHg 24%
    10:00 +16°C° 0 mm 5 mps 730 mmHg 23%
    11:00 +19°C° 0 mm 5 mps 730 mmHg 23%
    12:00 +21°C° 0 mm 6 mps 729 mmHg 23%
    13:00 +22°C° 0 mm 6 mps 729 mmHg 23%
    14:00 +23°C° 0 mm 7 mps 728 mmHg 23%
    15:00 +22°C° 0 mm 6 mps 728 mmHg 27%
    16:00 +22°C° 0 mm 5 mps 727 mmHg 30%
    17:00 +21°C° 0 mm 4 mps 727 mmHg 34%
    18:00 +20°C° 0 mm 4 mps 727 mmHg 35%
    19:00 +19°C° 0 mm 5 mps 727 mmHg 37%
    20:00 +17°C° 0 mm 5 mps 728 mmHg 39%
    21:00 +16°C° 0 mm 5 mps 727 mmHg 39%
    22:00 +16°C° 0 mm 5 mps 727 mmHg 39%
    23:00 +15°C° 0 mm 5 mps 727 mmHg 40%

    Day after tomorrow, 23 April, Tuesday

    Time Temperature Precipitation Wind Pressure Humidity
    00:00 +15°C° 0 mm 6 mps 727 mmHg 41%
    01:00 +15°C° 0 mm 7 mps 728 mmHg 43%
    02:00 +15°C° 0 mm 8 mps 728 mmHg 44%
    03:00 +14°C° 0.1 mm 7 mps 728 mmHg 51%
    04:00 +14°C° 0.1 mm 6 mps 728 mmHg 58%
    05:00 +13°C° 0.1 mm 5 mps 728 mmHg 65%
    06:00 +13°C° 0.1 mm 4 mps 729 mmHg 69%
    07:00 +14°C° 0.1 mm 4 mps 729 mmHg 72%
    08:00 +14°C° 0.1 mm 4 mps 730 mmHg 76%
    09:00 +15°C° 0.1 mm 4 mps 730 mmHg 74%
    10:00 +16°C° 0.1 mm 3 mps 730 mmHg 71%
    11:00 +17°C° 0.1 mm 3 mps 731 mmHg 68%
    12:00 +18°C° 0 mm 3 mps 731 mmHg 65%
    13:00 +18°C° 0 mm 3 mps 731 mmHg 62%
    14:00 +18°C° 0 mm 3 mps 730 mmHg 60%
    15:00 +18°C° 0 mm 3 mps 730 mmHg 62%
    16:00 +17°C° 0 mm 3 mps 730 mmHg 65%
    17:00 +17°C° 0 mm 3 mps 730 mmHg 67%
    18:00 +16°C° 0 mm 2 mps 730 mmHg 67%
    19:00 +16°C° 0 mm 1 mps 731 mmHg 66%
    20:00 +15°C° 0 mm 1 mps 731 mmHg 66%
    21:00 +15°C° 0 mm 1 mps 731 mmHg 59%
    22:00 +15°C° 0 mm 1 mps 731 mmHg 52%
    23:00 +14°C° 0 mm 2 mps 731 mmHg 46%

    24 April, Wednesday

    Time Temperature Precipitation Wind Pressure Humidity
    00:00 +14°C° 0.1 mm 2 mps 731 mmHg 44%
    01:00 +13°C° 0.1 mm 2 mps 731 mmHg 43%
    02:00 +13°C° 0.1 mm 2 mps 732 mmHg 42%
    03:00 +11°C° 0 mm 3 mps 732 mmHg 39%
    04:00 +10°C° 0 mm 5 mps 733 mmHg 35%
    05:00 +9°C° 0 mm 6 mps 733 mmHg 32%
    06:00 +8°C° 0.2 mm 6 mps 734 mmHg 31%
    07:00 +8°C° 0.2 mm 5 mps 734 mmHg 29%
    08:00 +7°C° 0.2 mm 4 mps 734 mmHg 28%
    09:00 +8°C° 0.1 mm 4 mps 734 mmHg 27%
    10:00 +11°C° 0.1 mm 4 mps 734 mmHg 25%
    11:00 +12°C° 0.1 mm 3 mps 734 mmHg 24%
    12:00 +13°C° 0 mm 4 mps 734 mmHg 21%
    13:00 +13°C° 0 mm 4 mps 733 mmHg 18%
    14:00 +14°C° 0 mm 4 mps 732 mmHg 15%
    15:00 +14°C° 0 mm 5 mps 732 mmHg 16%
    16:00 +13°C° 0 mm 5 mps 732 mmHg 17%
    17:00 +13°C° 0 mm 5 mps 732 mmHg 18%
    18:00 +12°C° 0 mm 4 mps 733 mmHg 20%
    19:00 +10°C° 0 mm 4 mps 733 mmHg 22%
    20:00 +9°C° 0 mm 3 mps 733 mmHg 24%
    21:00 +9°C° 0 mm 3 mps 733 mmHg 27%
    22:00 +8°C° 0 mm 3 mps 733 mmHg 29%
    23:00 +7°C° 0 mm 3 mps 733 mmHg 32%

    25 April, Thursday

    Time Temperature Precipitation Wind Pressure Humidity
    00:00 +5°C° 0 mm 3 mps 733 mmHg 34%
    01:00 +5°C° 0 mm 3 mps 733 mmHg 36%
    02:00 +5°C° 0 mm 3 mps 733 mmHg 38%
    03:00 +4°C° 0 mm 4 mps 733 mmHg 39%
    04:00 +4°C° 0 mm 4 mps 733 mmHg 41%
    05:00 +4°C° 0 mm 4 mps 733 mmHg 42%
    06:00 +5°C° 0 mm 4 mps 733 mmHg 39%
    07:00 +6°C° 0 mm 5 mps 733 mmHg 36%
    08:00 +8°C° 0 mm 5 mps 733 mmHg 34%
    09:00 +8°C° 0 mm 5 mps 733 mmHg 33%
    10:00 +9°C° 0 mm 5 mps 733 mmHg 32%
    11:00 +9°C° 0 mm 5 mps 733 mmHg 32%
    12:00 +10°C° 0 mm 5 mps 733 mmHg 30%
    13:00 +12°C° 0 mm 5 mps 732 mmHg 29%
    14:00 +13°C° 0 mm 5 mps 732 mmHg 28%
    15:00 +13°C° 0 mm 4 mps 731 mmHg 28%
    16:00 +12°C° 0 mm 4 mps 731 mmHg 29%
    17:00 +12°C° 0 mm 4 mps 731 mmHg 30%
    18:00 +11°C° 0 mm 4 mps 731 mmHg 33%
    19:00 +10°C° 0 mm 3 mps 732 mmHg 35%
    20:00 +9°C° 0 mm 3 mps 732 mmHg 38%
    21:00 +8°C° 0 mm 3 mps 732 mmHg 39%
    22:00 +8°C° 0 mm 2 mps 732 mmHg 41%
    23:00 +7°C° 0 mm 2 mps 732 mmHg 43%

    26 April, Friday

    Time Temperature Precipitation Wind Pressure Humidity
    00:00 +6°C° 0 mm 2 mps 732 mmHg 44%
    01:00 +6°C° 0 mm 2 mps 732 mmHg 46%
    02:00 +5°C° 0 mm 2 mps 732 mmHg 48%
    03:00 +5°C° 0 mm 2 mps 732 mmHg 48%
    04:00 +4°C° 0 mm 2 mps 733 mmHg 49%
    05:00 +4°C° 0 mm 2 mps 733 mmHg 50%
    06:00 +5°C° 0 mm 3 mps 733 mmHg 45%
    07:00 +8°C° 0 mm 3 mps 733 mmHg 41%
    08:00 +10°C° 0 mm 4 mps 733 mmHg 37%
    09:00 +12°C° 0 mm 4 mps 733 mmHg 34%
    10:00 +13°C° 0 mm 4 mps 733 mmHg 31%
    11:00 +14°C° 0 mm 4 mps 733 mmHg 28%
    12:00 +14°C° 0 mm 4 mps 732 mmHg 27%
    13:00 +15°C° 0 mm 4 mps 732 mmHg 27%
    14:00 +15°C° 0 mm 4 mps 732 mmHg 26%
    15:00 +15°C° 0 mm 4 mps 732 mmHg 27%
    16:00 +16°C° 0 mm 3 mps 732 mmHg 27%
    17:00 +16°C° 0 mm 3 mps 732 mmHg 28%
    18:00 +13°C° 0 mm 3 mps 732 mmHg 32%
    19:00 +12°C° 0 mm 2 mps 733 mmHg 35%
    20:00 +10°C° 0 mm 2 mps 733 mmHg 39%
    21:00 +10°C° 0 mm 1 mps 734 mmHg 39%
    22:00 +9°C° 0 mm 1 mps 734 mmHg 40%
    23:00 +9°C° 0 mm 1 mps 734 mmHg 41%
    Show more